Lid_Strength_Index
1 1 0 3 11 12 14 12 8 10 9 6 5 7 8 7 9 12 2 1 0 0 -0 -0 -1 -2 -1 -2 -2 -2 -2 -2 -2 -2 -2 -2 -2 -2 -1 -1 -1 -1 -1 -1 -1 -1 -1 -1 -1
3 1 2 6 13 16 15 9 11 9 7 6 6 6 8 9 5 4 3 1 0 -0 -0 -0 -1 -2 -1 -1 -2 -2 -2 -2 -2 -2 -2 -2 -2 -1 -1 -1 -1 -1 -1 -1 -1 -1 -1 -1 -1
1 1 7 10 13 16 15 10 9 7 6 6 7 5 7 8 4 4 1 0 0 0 -0 -0 -1 -2 -1 -2 -2 -2 -2 -2 -2 -2 -1 -2 -2 -1 -1 -1 -1 -1 -1 -1 -1 -1 -1 -1 -1
2 4 6 12 14 11 11 9 8 7 6 5 6 8 5 3 4 2 1 0 0 0 -0 -1 -1 -2 -1 -1 -2 -2 -2 -1 -1 -2 -1 -1 -1 -1 -1 -1 -1 -1 -1 -1 -1 -1 -1 -1 -1
3 6 12 13 13 10 8 8 8 8 7 7 6 8 7 3 2 1 1 0 1 0 -0 -0 -2 -2 -2 -1 -2 -1 -1 -1 -1 -1 -1 -1 -1 -1 -1 -1 -1 -1 -1 -1 -1 -1 -1 -1 -1
7 7 13 15 13 9 8 7 7 8 7 6 7 7 7 3 2 1 1 1 0 0 -0 -0 -1 -2 -2 -2 -1 -2 -1 -1 -1 -1 -1 -1 -1 -1 -1 -1 -1 -1 -1 -1 -1 -1 -1 -1 -1
8 10 12 12 12 11 9 6 8 8 7 7 5 9 6 4 2 1 1 0 0 0 -0 -0 -0 -1 -2 -1 -2 -1 -1 -1 -1 -1 -1 -1 -1 -1 -1 -1 -1 -1 -1 -1 -1 -1 -1 -1 -1
6 8 11 11 12 11 8 7 6 7 8 4 4 9 9 4 2 1 1 1 1 0 0 1 0 0 -0 -0 -1 -1 -1 -1 -1 -1 -1 -1 -1 -1 -1 -2 -1 -1 -1 -1 -1 -1 -1 -1 -1
4 11 13 11 11 10 7 8 6 5 6 6 5 5 4 2 2 2 2 2 2 1 1 0 1 1 0 0 -1 -1 -1 -2 -1 -1 -1 -1 0 -0 -1 -1 -1 -1 -1 -1 -1 -1 -1 -1 -1
7 11 10 8 7 8 7 7 7 7 8 7 6 4 3 3 3 4 4 4 3 2 1 0 1 1 1 1 1 0 -0 0 0 1 1 0 0 1 -1 -1 -1 -1 -1 -1 -1 -1 -1 -1 -0
7 10 7 7 6 6 7 7 6 8 9 7 8 6 4 4 4 4 3 3 3 2 1 1 1 2 1 0 0 -0 -0 -0 0 0 1 0 0 0 0 0 0 1 -1 -0 -0 -0 0 0 0
8 6 6 6 6 6 7 6 7 7 7 5 5 4 4 4 4 4 4 3 3 2 1 1 1 1 1 -0 0 0 0 0 0 0 0 1 1 1 0 1 1 2 1 1 -0 0 0 1 1
7 6 6 5 5 6 6 7 7 7 5 4 4 4 4 4 4 3 2 2 2 2 1 1 1 1 0 0 -0 0 1 0 0 0 0 1 1 1 1 1 0 2 1 1 0 0 1 1 1
7 6 5 5 6 6 7 7 6 6 5 5 5 5 4 4 4 3 3 3 2 2 2 1 0 0 0 0 0 -0 0 0 0 0 0 1 1 1 -0 -0 0 0 0 0 1 1 1 2 0
6 8 7 6 6 7 6 9 9 6 5 6 6 5 4 4 3 4 3 3 2 2 1 1 1 0 0 0 0 0 0 -0 -0 0 1 1 0 0 0 1 0 -0 -0 -0 0 1 0 1 -0
8 8 11 7 7 6 7 11 7 6 6 7 6 5 5 4 4 3 2 2 2 2 2 1 0 0 1 1 0 -0 0 0 0 0 0 0 -0 0 0 1 1 1 1 1 1 1 1 1 1
11 13 11 9 6 7 9 10 7 6 6 7 6 6 5 5 4 3 2 2 2 2 1 1 1 1 1 1 0 0 0 1 1 1 0 0 -0 -0 1 0 0 -0 1 2 1 1 1 1 1
13 12 10 10 8 7 9 9 8 7 7 7 6 6 6 5 5 3 2 2 2 1 1 1 1 1 0 1 1 1 1 1 1 1 0 -0 0 0 0 0 0 -0 1 1 0 1 1 1 1
11 12 12 10 7 8 9 10 8 7 7 7 7 6 6 5 4 3 2 2 2 2 2 1 1 1 1 2 2 2 2 1 1 1 -0 0 1 0 1 1 1 1 1 1 0 1 1 2 1
11 12 12 10 7 9 9 9 8 7 7 7 7 6 6 5 5 4 3 2 2 2 2 2 1 2 1 1 1 1 1 1 1 1 0 -0 1 0 1 2 3 1 0 1 1 1 2 3 2
12 12 12 11 9 9 9 11 9 8 7 6 6 5 5 5 5 4 4 3 3 2 2 2 2 2 1 1 1 2 1 1 2 2 1 1 0 0 0 1 3 0 1 1 1 2 2 4 3
13 10 9 9 11 13 11 15 12 10 9 7 7 6 6 5 5 4 4 4 3 2 2 2 2 2 1 1 1 2 2 3 2 2 1 0 -0 -0 0 1 2 0 0 1 1 1 1 2 4
11 9 10 9 12 12 12 14 12 10 10 9 7 6 5 5 4 4 4 3 2 2 2 2 2 1 1 1 1 2 2 2 2 2 2 1 0 0 0 1 2 1 0 1 2 2 1 2 2
8 11 12 11 13 15 14 14 13 12 11 9 7 6 6 5 4 4 4 3 3 2 2 2 2 2 1 1 2 2 2 2 2 2 2 2 1 1 1 2 3 3 1 1 2 2 1 1 2
11 14 17 16 17 16 13 14 14 10 9 9 8 7 6 5 5 5 4 4 3 3 2 2 2 2 2 1 1 1 2 2 2 2 2 2 2 1 1 1 2 3 0 1 2 3 1 1 2
12 14 16 18 17 16 13 16 14 8 7 7 7 7 6 6 5 5 4 4 3 3 2 2 2 2 2 1 1 1 2 2 2 2 2 1 1 1 0 0 1 1 1 1 1 1 1 1 1
12 14 13 15 16 15 14 13 10 8 8 8 8 7 6 6 5 5 4 3 3 3 3 2 2 2 2 2 1 1 1 1 2 2 2 1 1 1 0 0 0 0 1 1 1 1 1 1 1
11 11 14 15 17 19 16 15 15 12 10 8 9 8 7 6 5 5 4 4 3 3 2 2 2 2 2 1 1 1 1 1 1 1 2 2 1 1 1 1 1 0 0 1 1 1 2 2 1
13 14 14 14 15 17 18 16 10 11 10 9 8 7 7 6 5 5 4 3 3 2 2 3 4 5 3 3 2 1 1 1 1 1 1 1 2 2 1 1 1 1 1 0 1 1 2 2 2
12 14 14 15 15 16 15 15 9 9 9 8 8 7 6 5 5 5 4 4 3 4 4 3 4 2 2 1 1 1 1 2 2 1 1 1 1 1 1 1 1 1 1 1 1 1 1 2 2